Tracking 28920 objects as of 25-May-2024
HD Live streaming from Space Station
objects crossing your sky now

STARLINK-6311

Track STARLINK-6311 now!
10-day predictions
STARLINK-6311 is classified as:


NORAD ID: 56537
Int'l Code: 2023-065AL
Perigee: 565.0 km
Apogee: 567.4 km
Inclination: 43.0 °
Period: 95.8 minutes
Semi major axis: 6937 km
RCS: Unknown
Launch date: May 14, 2023
Source: United States (US)
Launch site: AIR FORCE EASTERN TEST RANGE (AFETR)
Your satellite tracking list
Your tracking list is empty




NASA's NSSDC Master Catalog

Two Line Element Set (TLE):
1 56537U 23065AL  24145.81596073 -.00002538  00000-0 -17290-3 0  9999
2 56537  43.0021 176.4570 0001735 270.0823  89.9820 15.02527722 58110
Source of the keplerian elements: AFSPC